Marsa Alam International, Egypt

11:11 AM EET on May 27, 2018 (GMT +0200)
Marsa Alam International

Weather History for HEMA - November, 2013

Change the Weather History Date:

Saturday, November 30, 2013

  Actual Average Record
Temperature  
Mean Temperature 72 °F -  
Max Temperature 77 °F - - ()
Min Temperature 68 °F - - ()
Cooling Degree Days 8    
Growing Degree Days 22 (Base 50)    
Moisture  
Dew Point 63 °F    
Average Humidity 73    
Maximum Humidity 94    
Minimum Humidity 50    
Precipitation  
Precipitation 0.00 in - - ()
Sea Level Pressure  
Sea Level Pressure 29.98 in    
Wind  
Wind Speed 11 mph ()    
Max Wind Speed 18 mph    
Max Gust Speed -    
Visibility 6.2 miles    
Events      
T = Trace of Precipitation, MM = Missing Value Source: Averaged Metar Reports

Daily Weather History Graph

Daily Weather History Graph

Search for Another Location

Airport or City:

Astronomy

Nov. 30, 2013 Rise Set
Actual Time 6:10 AM EET 4:50 PM EET
Civil Twilight 5:45 AM EET 5:15 PM EET
Nautical Twilight 5:16 AM EET 5:43 PM EET
Astronomical Twilight 4:49 AM EET 6:11 PM EET
Moon 3:13 AM EET (11/30) 2:47 PM EET (11/30)
Length of Visible Light 11h 30m
Length of Day
10h 40m
Waning Crescent, 9% of the Moon is Illuminated
Nov 30
Waning Crescent
Dec 3
New
Dec 9
First Quarter
Dec 17
Full
Dec 25
Last Quarter

Hourly Weather History & Observations

Time (EET) Temp. Dew Point Humidity Pressure Visibility Wind Dir Wind Speed Gust Speed Precip Events Conditions
12:00 AM 71.6 °F 62.6 °F 73% 29.98 in - NW 15.0 mph - N/A   Clear
1:00 AM 69.8 °F 64.4 °F 83% 29.95 in - NW 12.7 mph - N/A   Clear
2:00 AM 69.8 °F 62.6 °F 78% 29.95 in - NNW 11.5 mph - N/A   Clear
3:00 AM 69.8 °F 62.6 °F 78% 29.95 in - NW 9.2 mph - N/A   Clear
4:00 AM 68.0 °F 57.2 °F 68% 29.95 in - NW 10.4 mph - N/A   Clear
5:00 AM 69.8 °F 59.0 °F 68% 29.98 in - WNW 12.7 mph - N/A   Clear
6:00 AM 69.8 °F 59.0 °F 68% 29.98 in 6.2 mi NW 18.4 mph - N/A   Partly Cloudy
7:00 AM 69.8 °F 59.0 °F 68% 30.01 in 6.2 mi NW 13.8 mph - N/A   Partly Cloudy
8:00 AM 73.4 °F 53.6 °F 50% 30.01 in 6.2 mi WNW 13.8 mph - N/A   Partly Cloudy
9:00 AM 73.4 °F 60.8 °F 65% 30.04 in - WNW 13.8 mph - N/A   Clear
10:00 AM 75.2 °F 60.8 °F 61% 29.98 in - North 11.5 mph - N/A   Clear
12:00 PM 77.0 °F 62.6 °F 61% 29.98 in 6.2 mi North 4.6 mph - N/A   Partly Cloudy
2:00 PM 75.2 °F 62.6 °F 65% 29.95 in - NNE 12.7 mph - N/A   Clear
3:00 PM 75.2 °F 64.4 °F 69% 29.95 in 6.2 mi NNE 12.7 mph - N/A   Partly Cloudy
4:00 PM 73.4 °F 66.2 °F 78% 29.98 in 6.2 mi North 13.8 mph - N/A   Partly Cloudy
5:00 PM 73.4 °F 64.4 °F 73% 29.98 in 6.2 mi NNE 12.7 mph - N/A   Partly Cloudy
6:00 PM 73.4 °F 64.4 °F 73% 30.01 in 6.2 mi NNW 6.9 mph - N/A   Scattered Clouds
7:00 PM 71.6 °F 66.2 °F 83% 29.98 in 6.2 mi NNW 9.2 mph - N/A   Scattered Clouds
8:00 PM 71.6 °F 68.0 °F 88% 29.98 in 6.2 mi NNW 12.7 mph - N/A   Scattered Clouds
9:00 PM 69.8 °F 64.4 °F 83% 30.04 in 6.2 mi WNW 6.9 mph - N/A   Partly Cloudy
10:00 PM 69.8 °F 66.2 °F 88% 30.01 in - NW 9.2 mph - N/A   Clear
11:00 PM 69.8 °F 68.0 °F 94% 30.01 in - North 11.5 mph - N/A   Clear